This is the latest recevied weather packets stored in our database for station/object WV5G-13. If no packets are shown the sender has not sent any weather packets the latest 10 day(s).
| Time | Temp. | Humidity | Pressure | Rain* | Wind** | Luminosity | Snow |
|---|---|---|---|---|---|---|---|
| 1777481582 | 14.44° C | 52% | 1017.8 hPa | 0 mm | - | 837 W/m² | - |
| 1777481278 | 14.44° C | 51% | 1017.8 hPa | 0 mm | - | 908 W/m² | - |
| 1777480975 | 13.89° C | 56% | 1017.5 hPa | 0 mm | - | 883 W/m² | - |
| 1777480672 | 12.78° C | 56% | 1017.5 hPa | 0 mm | - | 468 W/m² | - |
| 1777480369 | 12.78° C | 57% | 1017.1 hPa | 0 mm | - | 636 W/m² | - |
| 1777480064 | 12.78° C | 58% | 1017.5 hPa | 0 mm | - | 575 W/m² | - |
| 1777479761 | 12.78° C | 58% | 1017.4 hPa | 0 mm | - | 734 W/m² | - |
| 1777479459 | 12.22° C | 59% | 1017.7 hPa | 0 mm | - | 655 W/m² | - |
| 1777479155 | 12.22° C | 60% | 1017.8 hPa | 0 mm | - | 585 W/m² | - |
| 1777478852 | 12.22° C | 60% | 1017.7 hPa | 0 mm | - | 647 W/m² | - |
| 1777478548 | 12.22° C | 60% | 1017.9 hPa | 0 mm | - | 688 W/m² | - |
| 1777478246 | 12.22° C | 62% | 1017.8 hPa | 0 mm | - | 672 W/m² | - |
| 1777477942 | 11.67° C | 63% | 1017.8 hPa | 0 mm | - | 632 W/m² | - |
| 1777477637 | 11.67° C | 63% | 1018.1 hPa | 0 mm | - | 628 W/m² | - |
| 1777477334 | 11.67° C | 65% | 1018 hPa | 0 mm | - | 596 W/m² | - |
| 1777477031 | 11.67° C | 66% | 1018 hPa | 0 mm | - | 593 W/m² | - |
| 1777476729 | 10.56° C | 69% | 1017.7 hPa | 0 mm | - | 641 W/m² | - |
| 1777476425 | 10.56° C | 69% | 1017.9 hPa | 0 mm | - | 556 W/m² | - |
| 1777476122 | 10.56° C | 70% | 1018.2 hPa | 0 mm | - | 505 W/m² | - |
| 1777475817 | 10° C | 70% | 1017.9 hPa | 0 mm | - | 424 W/m² | - |
| 1777475513 | 10° C | 72% | 1017.9 hPa | 0 mm | - | 469 W/m² | - |
| 1777475210 | 10° C | 73% | 1018.1 hPa | 0 mm | - | 427 W/m² | - |
| 1777474905 | 9.44° C | 74% | 1017.9 hPa | 0 mm | - | 425 W/m² | - |
| 1777474601 | 9.44° C | 74% | 1018.1 hPa | 0 mm | - | 404 W/m² | - |
| 1777474298 | 8.89° C | 75% | 1018.1 hPa | 0 mm | - | 379 W/m² | - |
* Rain latest hour (hover to see other rain measurements)
** Current wind speed in m/s (hover to see current wind gust speed)